Tracking 28790 objects as of 19-Apr-2024
HD Live streaming from Space Station
objects crossing your sky now

NOAA 16 DEB

Track NOAA 16 DEB now!
10-day predictions


NORAD ID: 41419
Int'l Code: 2000-055KY
Perigee: 800.2 km
Apogee: 824.0 km
Inclination: 98.9 °
Period: 101.0 minutes
Semi major axis: 7183 km
RCS: Unknown
Launch date: September 21, 2000
Source: United States (US)
Launch site: AIR FORCE WESTERN TEST RANGE (AFWTR)

Note: This is SATELLITE DEBRIS
Your satellite tracking list
Your tracking list is empty




NASA's NSSDC Master Catalog

Two Line Element Set (TLE):
1 41419U 00055KY  24109.49344887  .00020560  00000-0  85896-2 0  9993
2 41419  98.8603 200.6086 0016505 258.4661 101.4665 14.26052319420491
Source of the keplerian elements: AFSPC